Regional Weather Roundup
Issued by NWS

Home | Current Version | Previous Version | Text Only | Print | Product List | Glossary Off
Versions: 1 2 3 4 5 6 7 8 9 10 11 12 13 14 15 16 17 18 19 20 21 22 23 24 25 26 27 28 29 30 31 32 33 34 35 36 37 38 39 40 41 42 43 44 45 46 47 48 49 50

000
ASUS43 KIND 230700
RWRIN

WEATHER ROUNDUP FOR INDIANA
NATIONAL WEATHER SERVICE INDIANAPOLIS IN
300 AM EDT WED AUG 23 2017

NOTE: "FAIR" INDICATES FEW OR NO CLOUDS BELOW 12,000 FEET WITH NO
SIGNIFICANT WEATHER AND/OR OBSTRUCTIONS TO VISIBILITY.

* - STATION DOES NOT REPORT WEATHER SUCH AS PRECIPITATION OR FOG.

+ - STATION NOT QUALITY CONTROLLED BY THE NATIONAL WEATHER SERVICE.
    USE DATA WITH CAUTION...ESPECIALLY DEWPOINT AND RELATIVE
    HUMIDITY OBSERVATIONS.

INZ001>003-010>013-019-020-230800-
NORTHWEST INDIANA

CITY           SKY/WX    TMP DP  RH WIND       PRES   REMARKS
MICHIGAN CITY+ CLEAR     68  52  56 NW7       30.00S
MONTICELLO +   CLEAR     59  58  96 CALM      30.01S
RENSSELAER +   PTCLDY    59  52  77 W3        30.02S

$$

LMZ046-743>745-230800-
SOUTHERN LAKE MICHIGAN

STATION/POSITION TIME  TEMP    WIND        PRES    WAVE
                       AIR SEA DIR/SP/G            HT
                 (UTC) (F)     (DEG/KT/KT) (MB)    (FT)
BURNS HARBOR     0640   71     310/ 16/ 19 1015.9F
MICHIGAN CITY    0630   71     300/ 20/ 22   N/A
5NW MICH CITY    0650   71 74  320/ 16/ 21   N/A     5

$$

INZ004-005-014>016-021>024-230800-
NORTH CENTRAL INDIANA

CITY           SKY/WX    TMP DP  RH WIND       PRES   REMARKS
GOSHEN         CLEAR     57  53  86 SW3       29.98F
PERU/GRISSOM   CLEAR     61  60  99 W3        30.00S
SOUTH BEND     CLEAR     57  57 100 SW3       30.00S

$$

INZ006>009-017-018-025>027-230800-
NORTHEAST INDIANA

CITY           SKY/WX    TMP DP  RH WIND       PRES   REMARKS
FORT WAYNE     CLEAR     55  53  93 SW6       29.99S

$$

INZ028-029-035-036-043>045-051>053-230800-
WEST CENTRAL INDIANA

CITY           SKY/WX    TMP DP  RH WIND       PRES   REMARKS
LAFAYETTE      PTCLDY    60  58  92 CALM      30.01S
TERRE HAUTE    CLEAR     62  57  83 NW6       30.02F

$$

INZ030>032-037>040-046>048-054>057-064-065-230800-
CENTRAL INDIANA

CITY           SKY/WX    TMP DP  RH WIND       PRES   REMARKS
GREENWOOD *+   CLEAR    N/A N/A N/A NW3       30.01S
INDIANAPOLIS   PTCLDY    62  58  86 NW7       30.00S
-EAGLE CREEK   CLEAR     64  59  83 NW8       30.00S
KOKOMO +       CLEAR     60  58  92 W3        30.02R
MT COMFORT *+  PTCLDY    59  59 100 CALM      30.01S
SHELBYVILLE    PTCLDY    64  59  83 NW5       29.99S

$$

INZ033-034-041-042-049-050-058-059-230800-
EAST CENTRAL INDIANA

CITY           SKY/WX    TMP DP  RH WIND       PRES   REMARKS
MUNCIE         CLEAR     59  56  89 CALM      30.00S
RICHMOND +     CLEAR     61  59  94 N3        30.00S

$$

INZ060-061-067>069-081>083-085>088-230800-
SOUTHWEST INDIANA

CITY           SKY/WX    TMP DP  RH WIND       PRES   REMARKS
EVANSVILLE     PTCLDY    68  61  78 NW7       30.02S
HUNTINGBURG +  CLEAR     66  61  84 NW6       30.01S

$$

INZ062-063-066-070>080-084-089>092-230800-
SOUTH CENTRAL AND SOUTHEAST INDIANA

CITY           SKY/WX    TMP DP  RH WIND       PRES   REMARKS
BLOOMINGTON    CLEAR     63  57  81 CALM      30.01S
MADISON *+     CLEAR     64  63  94 CALM      30.01S
SEYMOUR +      CLEAR     66  59  77 NW5       29.99F

$$





USA.gov is the U.S. government's official web portal to all federal, state and local government web resources and services.